Theta_e
296 299 299 296 295 296 292 291 288 290 290 292 293 294 295 295 296 297 297 298 298 298 298 298 298 299 299 299 299 299 300 300 300 301 301 301 302 302 303 303 303 303 303 304
294 300 300 296 298 297 297 295 293 293 290 296 296 296 296 296 297 296 297 299 299 299 299 298 298 298 298 298 298 301 300 299 300 301 301 301 301 302 302 302 302 303 303 303
287 297 296 289 294 297 296 296 294 287 292 295 295 297 295 296 296 297 298 298 298 298 298 298 297 298 296 297 298 300 300 300 301 301 301 301 302 302 302 302 302 302 302 302
288 292 282 293 302 301 297 296 296 296 296 297 296 297 298 298 294 297 298 298 298 297 297 297 297 297 297 297 299 299 299 300 301 301 301 302 302 302 302 302 302 302 302 303
285 285 292 297 300 297 292 292 298 297 298 299 300 297 296 299 298 298 297 298 298 298 297 296 296 297 296 299 298 299 299 300 301 301 301 302 302 303 303 303 303 303 303 303
288 284 283 293 302 302 299 286 301 300 298 297 296 289 292 299 299 298 298 298 297 297 298 296 296 299 299 299 298 298 299 300 302 302 302 303 304 304 305 304 304 304 304 305
287 285 291 299 302 303 287 289 301 301 300 297 293 295 298 297 298 299 298 298 297 296 295 296 300 300 298 298 297 299 300 302 302 303 304 305 305 304 304 303 303 302 300 301
289 285 286 303 301 293 296 298 301 301 300 297 298 297 296 298 297 298 298 298 297 295 295 299 300 298 297 297 299 300 301 302 302 303 306 304 303 302 302 302 300 299 299 299
293 293 299 302 300 301 302 300 301 299 299 299 297 295 296 297 296 297 296 297 296 296 298 298 297 298 297 298 300 300 301 301 302 304 306 304 302 301 301 301 299 298 297 297
295 297 301 303 304 304 303 302 302 301 299 298 296 296 297 298 297 296 296 295 295 297 295 295 298 299 299 300 301 300 300 301 302 304 304 304 304 303 302 300 297 296 295 297
295 298 300 302 305 305 304 304 302 301 300 299 297 298 298 297 296 295 295 295 296 295 293 294 298 299 300 300 301 300 300 301 303 304 304 303 303 303 302 301 294 293 294 295
293 299 299 299 303 305 303 302 301 300 299 299 299 298 298 296 295 295 294 295 294 295 293 296 298 299 300 301 300 299 299 301 302 302 304 303 303 303 300 297 295 293 292 293
299 303 303 304 305 305 303 302 302 301 301 299 299 300 298 296 295 297 294 295 294 294 295 297 298 299 300 300 300 300 300 300 301 301 303 302 303 302 301 303 300 298 294 293
305 305 301 303 302 305 305 304 304 301 301 300 301 300 299 296 295 295 294 294 295 295 295 296 298 298 300 300 300 300 301 298 300 301 303 303 303 303 303 302 301 301 300 296
305 305 304 305 304 305 304 302 299 298 299 300 301 300 299 296 295 295 296 296 295 294 296 298 298 298 300 300 300 300 300 299 300 301 303 303 304 304 303 303 302 301 302 301
305 305 305 304 304 304 302 299 297 297 300 300 300 300 299 297 296 295 295 295 293 292 296 298 297 298 299 299 300 299 300 297 298 301 302 303 304 304 304 303 302 301 300 300
301 300 301 302 303 303 299 298 298 299 300 299 300 300 299 297 295 294 294 295 295 294 297 297 297 299 299 300 300 299 299 300 296 301 302 303 303 304 304 303 302 302 301 296
305 305 306 305 304 300 299 301 301 301 299 301 302 300 297 295 293 293 293 294 298 295 297 297 298 297 299 300 299 299 300 301 300 300 301 302 303 304 304 303 303 302 303 301
305 306 305 305 302 301 301 300 299 300 302 303 301 298 297 295 294 293 294 298 296 295 296 297 297 297 298 298 297 298 300 300 300 300 301 300 303 304 303 303 303 303 303 303
305 306 304 303 303 301 300 301 301 302 302 301 300 298 295 295 294 294 295 297 297 297 297 297 297 296 296 297 294 298 300 299 299 299 301 302 303 304 303 300 302 302 303 303
305 303 302 302 302 303 303 302 302 301 301 302 299 297 295 294 294 294 294 291 296 297 296 295 296 295 296 294 294 299 299 299 299 299 300 301 303 304 304 303 303 302 302 303
303 302 302 303 302 301 303 302 302 302 301 301 300 297 295 292 293 294 299 295 297 293 295 296 297 291 291 288 298 299 299 299 299 300 300 301 302 303 303 303 303 303 303 303
303 302 303 302 302 302 302 302 303 304 302 300 298 295 293 292 292 291 293 297 297 294 295 297 290 287 286 296 299 299 299 299 300 300 300 301 302 303 303 303 303 303 303 303
303 302 302 304 303 302 300 302 302 302 301 299 298 296 294 291 291 294 295 295 292 292 296 295 291 287 287 299 299 299 299 299 299 300 300 295 302 302 303 304 303 303 304 303
303 303 303 302 301 301 301 301 301 299 299 296 296 296 294 293 292 297 297 297 293 295 298 292 290 289 298 299 299 299 299 299 299 299 300 300 300 301 300 303 303 303 304 304
303 303 303 302 301 302 302 302 299 298 297 295 294 293 293 293 294 297 297 296 297 295 299 299 299 299 299 299 299 299 299 298 299 299 298 299 300 299 302 302 302 303 303 304
304 301 302 299 300 302 302 300 298 296 295 295 293 293 292 292 295 295 294 297 298 299 299 299 298 298 299 299 299 299 299 299 294 298 299 299 299 297 300 302 303 303 303 305
Wind_Speed
5 6 5 6 9 9 6 7 7 5 6 1 2 2 4 3 3 6 5 6 4 3 5 5 4 5 5 9 10 10 11 11 12 12 12 12 11 11 11 10 9 10 10 9
4 7 6 7 10 8 6 3 5 6 3 3 3 3 3 1 3 5 5 4 4 6 6 5 5 6 6 10 10 11 11 12 12 13 13 13 12 12 11 11 11 10 10 10
5 5 6 8 6 3 3 1 5 3 4 3 2 5 3 6 5 5 3 2 5 5 5 5 6 6 7 8 10 11 12 13 13 13 13 13 13 12 11 11 10 10 10 10
4 4 2 9 2 3 7 3 4 6 4 2 0 3 3 3 3 4 1 3 5 5 6 6 6 7 7 7 10 12 12 13 14 14 14 13 12 11 11 9 10 9 9 10
2 2 7 7 2 4 5 2 1 6 1 2 3 3 3 3 3 3 2 2 4 5 4 5 6 7 7 10 11 12 13 14 14 14 14 14 12 11 10 9 8 9 9 10
3 3 6 8 2 4 4 3 4 5 1 0 2 5 5 4 2 3 2 3 3 5 5 6 7 7 10 11 11 12 14 15 15 15 14 14 12 10 7 7 7 6 8 7
3 4 8 8 5 3 5 10 6 5 3 3 1 5 4 0 1 3 2 5 4 6 6 7 7 9 10 11 11 13 15 14 15 15 15 13 10 9 8 6 6 5 8 6
3 3 8 8 3 8 9 4 6 5 6 4 5 2 1 4 2 5 6 5 6 6 7 7 8 8 11 11 13 13 14 14 15 15 9 10 10 8 8 7 6 5 6 5
10 10 7 8 7 6 8 6 5 7 4 7 5 1 2 2 4 4 4 4 4 5 9 8 7 7 10 12 12 13 14 14 14 16 10 10 9 9 7 6 5 5 4 4
5 3 5 7 4 6 6 6 6 6 7 6 5 3 4 3 2 2 4 5 4 6 8 8 9 10 10 11 12 12 13 14 13 13 12 11 7 6 6 7 7 4 4 3
3 5 3 5 7 9 9 8 10 7 7 6 7 4 4 3 2 2 3 4 4 6 6 7 9 9 10 11 11 11 12 11 12 10 10 9 8 7 5 3 2 4 3 3
7 8 6 6 5 7 9 9 9 8 5 5 7 6 5 4 2 1 3 3 5 6 6 7 9 10 10 10 11 11 11 9 9 9 8 8 7 8 8 5 7 7 6 3
6 6 8 7 9 7 9 10 7 8 9 8 4 6 5 4 2 1 2 3 5 7 7 7 9 9 10 11 11 11 11 10 9 9 9 9 8 7 7 7 7 8 13 10
5 7 4 4 7 9 11 9 7 8 7 6 7 3 4 4 2 2 4 3 5 6 6 6 8 9 10 11 10 11 11 13 8 8 8 8 7 7 6 6 7 6 6 9
9 8 9 9 8 10 7 9 9 8 7 6 4 5 6 4 1 2 3 3 5 6 6 7 8 9 11 10 10 11 9 7 9 8 8 8 7 6 6 6 6 5 4 6
8 6 8 11 15 11 10 10 10 7 7 6 5 4 6 4 3 2 3 2 4 5 7 6 8 8 10 10 9 8 9 12 9 7 7 7 6 6 6 5 6 6 6 5
7 4 5 6 13 9 11 8 9 8 7 7 6 6 6 5 2 3 4 3 3 4 6 5 7 8 8 9 9 6 6 7 11 7 7 7 6 6 6 5 5 5 5 5
10 8 15 16 11 13 10 10 10 9 6 7 7 7 6 4 2 3 4 4 2 4 4 5 6 7 7 7 8 6 5 6 6 6 7 7 6 5 6 6 6 6 6 7
8 10 11 10 16 15 13 11 9 8 8 7 7 6 5 3 2 3 3 4 4 4 6 6 10 8 6 8 9 5 6 6 6 6 6 8 5 5 6 6 6 7 7 7
9 8 14 17 16 16 13 10 9 8 7 8 7 6 5 3 2 3 3 3 2 2 5 6 6 5 6 8 9 5 6 5 5 5 5 6 5 4 5 6 6 7 7 7
12 18 20 20 15 13 13 11 10 8 7 8 8 6 5 1 1 2 3 3 4 4 5 6 5 4 4 5 6 4 4 5 5 4 5 5 5 4 5 5 5 6 6 6
17 17 18 17 15 11 11 10 9 8 8 7 6 6 5 1 1 3 0 1 3 6 4 3 3 5 5 9 4 4 4 4 4 3 4 4 4 4 4 4 4 4 4 5
17 17 16 15 14 14 10 8 8 9 8 7 7 6 3 2 2 0 2 3 3 4 3 3 5 6 6 4 4 4 4 5 4 3 3 3 4 4 3 4 3 3 4 5
16 15 14 13 13 10 9 6 7 7 8 7 6 6 4 1 2 1 1 3 5 4 3 3 5 5 5 3 3 4 4 4 3 3 3 4 3 3 4 3 3 2 4 4
16 16 16 14 11 7 9 8 10 8 8 6 5 4 4 2 2 1 1 2 5 4 3 4 5 6 3 3 3 4 3 3 3 3 3 3 3 3 3 3 3 2 3 3
15 11 9 10 8 8 8 8 8 5 6 4 2 2 2 0 0 1 2 3 3 4 2 2 3 4 3 4 3 3 3 3 3 3 3 2 1 0 2 1 3 3 2 2
9 9 8 6 7 9 8 9 9 6 5 5 4 3 3 2 1 1 2 3 3 3 1 2 3 4 4 4 4 3 3 2 2 3 3 3 2 2 3 3 4 2 2 2
Wind_Direction
247 254 260 265 272 288 215 209 159 263 137 100 50 350 336 25 12 4 31 44 50 356 326 313 0 332 323 321 315 302 302 303 304 304 301 295 292 288 282 277 272 271 267 262
286 288 294 294 287 278 280 115 131 135 139 176 219 249 75 324 7 38 37 49 6 336 326 350 326 312 317 323 311 307 304 305 305 302 299 293 290 287 281 276 268 267 262 261
269 305 337 324 270 226 124 65 130 132 164 208 350 18 43 6 40 29 72 358 323 323 321 302 312 303 299 305 306 312 310 309 309 306 301 296 289 284 280 275 270 265 259 253
246 6 334 244 249 138 130 128 117 101 117 122 292 320 77 39 80 91 259 326 346 307 291 295 301 298 292 302 317 318 313 312 310 306 300 296 289 281 275 271 264 259 258 250
135 197 283 295 218 170 156 289 69 120 79 33 3 61 5 10 68 150 14 320 274 291 291 294 306 296 297 322 321 318 317 314 310 306 302 299 291 285 276 271 266 259 252 251
137 173 234 239 267 114 94 297 165 126 142 70 84 23 267 314 100 32 284 294 325 324 303 320 301 305 329 323 321 320 317 311 309 307 301 296 298 294 286 274 272 267 267 251
151 227 283 242 155 114 86 239 193 173 153 139 129 194 228 18 106 314 340 10 358 334 325 293 309 328 325 323 321 318 313 312 313 310 307 308 313 319 301 287 276 281 284 278
130 196 275 167 128 159 210 198 181 153 161 132 135 136 19 124 3 20 18 358 340 344 318 332 332 329 325 325 322 320 315 319 317 315 321 327 322 319 315 303 282 281 290 280
169 210 227 194 186 195 161 162 166 148 127 131 131 146 93 169 38 29 18 327 334 328 326 335 328 332 324 324 322 322 319 321 320 319 329 327 327 325 327 324 304 295 301 295
68 271 207 206 230 152 152 140 154 127 137 136 142 118 136 55 83 23 336 335 326 330 331 326 338 337 328 323 323 323 321 323 321 325 332 331 329 325 336 350 341 332 311 310
246 263 118 322 199 154 140 129 124 141 150 153 123 118 126 131 128 345 326 316 326 322 311 314 332 332 329 327 328 325 322 323 325 328 328 327 329 326 335 348 309 314 311 307
229 221 178 218 190 151 137 146 152 144 137 99 120 137 130 151 166 288 324 317 330 318 310 322 331 332 336 334 332 326 324 327 327 326 326 328 325 326 331 311 360 11 1 267
224 229 205 168 168 157 138 155 168 143 128 136 116 136 141 169 199 293 345 344 327 317 311 317 330 334 340 337 330 328 326 327 327 328 331 334 333 336 339 349 356 2 17 21
180 110 61 165 187 165 148 171 128 117 130 138 144 140 142 154 184 12 341 304 313 318 314 326 331 337 334 332 330 330 331 325 330 323 329 331 333 336 342 357 7 7 1 24
190 200 191 182 138 152 145 129 123 133 139 129 147 131 152 148 101 344 309 310 320 328 324 337 338 335 334 331 329 331 332 332 329 323 328 327 332 336 342 8 9 12 4 12
222 216 179 167 166 162 139 147 136 147 141 147 147 137 158 132 133 342 335 320 6 338 324 337 335 331 329 326 327 332 328 325 328 327 326 333 338 345 350 7 15 20 24 18
179 181 172 165 169 156 163 154 142 146 152 155 155 141 141 142 140 356 328 303 303 321 309 327 326 332 325 322 337 330 321 326 328 331 334 333 337 350 355 10 16 24 34 26
180 183 184 178 165 138 142 141 139 149 157 157 137 131 144 152 209 291 296 300 318 342 318 321 323 328 326 329 339 328 321 328 334 330 329 337 341 350 2 17 24 28 32 35
186 190 181 150 144 143 142 143 149 146 141 140 134 156 150 159 216 268 302 342 344 342 337 326 330 330 333 335 344 326 330 333 343 338 335 330 344 5 15 23 27 34 43 50
194 143 134 136 137 141 142 145 140 141 146 128 132 141 162 192 225 303 327 347 45 315 317 321 321 321 334 325 338 322 329 332 345 344 339 335 344 6 23 28 33 40 43 42
152 146 143 142 145 145 145 145 141 145 150 150 153 163 156 169 279 329 343 4 341 342 331 321 327 329 332 321 321 323 324 335 345 348 335 334 337 19 32 30 36 39 36 32
149 148 146 144 146 140 144 145 139 134 141 140 124 127 128 93 358 317 278 147 323 338 324 316 324 332 325 328 322 327 331 333 335 339 337 342 350 15 40 44 36 35 25 30
150 147 142 141 141 143 142 140 143 144 145 137 138 139 132 170 200 142 340 339 333 322 313 307 317 322 334 324 327 332 334 333 339 352 349 349 351 9 36 57 58 56 33 15
134 136 133 133 131 126 133 145 131 122 122 121 125 135 127 108 316 234 328 331 314 324 310 298 314 326 325 327 328 334 331 337 345 358 349 353 1 7 35 74 82 76 62 40
128 131 132 138 139 148 130 116 110 112 116 120 132 129 130 164 164 275 333 329 302 313 315 306 313 328 321 318 320 321 327 332 345 351 344 347 6 348 17 43 105 107 67 51
131 137 144 147 141 130 127 131 129 134 126 126 127 141 116 212 266 324 358 319 300 313 302 323 338 331 330 322 321 315 332 343 341 354 319 315 352 72 288 102 138 131 95 61
111 113 114 97 103 124 129 131 133 139 146 144 162 187 175 193 210 34 16 326 320 333 344 353 345 350 337 343 331 339 352 6 343 322 307 285 223 186 177 162 148 152 128 97